contact:dominique.lefevre@mio.osupytheas.fr, maurice.libes@osupytheas.fr, didier.mallarino@osupytheas.fr
Project:EMSO http://www.emso-fr.org/EMSO-France
Depth: 2436.0 m
Title:EMSO Ligure Ouest : Data MII capteur MICROCAT
DateTime_Computer,Latitude,Longitude,Temperature,Conductivity,Pressure,DateTime_Instrument
DateTime_Computer,Latitude,Longitude,degC,S m-1,dbar,DateTime_Instrument
2020-05-22T00:00:01Z,42.805,6.029,13.2970,4.59971,2470.017,2020-5-22T02:00:43Z
2020-05-22T00:03:04Z,42.805,6.029,13.2970,4.59972,2469.993,2020-5-22T02:03:47Z
2020-05-22T00:06:07Z,42.805,6.029,13.2969,4.59972,2469.993,2020-5-22T02:06:50Z
2020-05-22T00:09:11Z,42.805,6.029,13.2967,4.59971,2470.017,2020-5-22T02:09:53Z
2020-05-22T00:12:14Z,42.805,6.029,13.2967,4.59971,2470.03,2020-5-22T02:12:57Z
2020-05-22T00:15:17Z,42.805,6.029,13.2970,4.59971,2470.04,2020-5-22T02:16:00Z
2020-05-22T00:18:21Z,42.805,6.029,13.2968,4.59972,2470.053,2020-5-22T02:19:03Z
2020-05-22T00:21:24Z,42.805,6.029,13.2967,4.59973,2470.03,2020-5-22T02:22:07Z
2020-05-22T00:24:27Z,42.805,6.029,13.2968,4.59971,2470.03,2020-5-22T02:25:10Z
2020-05-22T00:27:31Z,42.805,6.029,13.2970,4.59971,2469.993,2020-5-22T02:28:13Z
2020-05-22T00:30:34Z,42.805,6.029,13.2966,4.59980,2470.007,2020-5-22T02:31:16Z
2020-05-22T00:33:37Z,42.805,6.029,13.2971,4.59970,2470.017,2020-5-22T02:34:20Z
2020-05-22T00:36:40Z,42.805,6.029,13.2971,4.59969,2470.007,2020-5-22T02:37:23Z
2020-05-22T00:39:44Z,42.805,6.029,13.2967,4.59971,2469.993,2020-5-22T02:40:26Z
2020-05-22T00:42:47Z,42.805,6.029,13.2968,4.59968,2469.993,2020-5-22T02:43:29Z
2020-05-22T00:45:50Z,42.805,6.029,13.2968,4.59971,2470.03,2020-5-22T02:46:32Z
2020-05-22T00:48:53Z,42.805,6.029,13.2969,4.59970,2470.04,2020-5-22T02:49:36Z
2020-05-22T00:51:56Z,42.805,6.029,13.2967,4.59968,2470.017,2020-5-22T02:52:39Z
2020-05-22T00:55:00Z,42.805,6.029,13.2968,4.59970,2469.993,2020-5-22T02:55:42Z
2020-05-22T00:58:03Z,42.805,6.029,13.2970,4.59969,2469.993,2020-5-22T02:58:46Z
2020-05-22T01:01:06Z,42.805,6.029,13.2975,4.59971,2469.984,2020-5-22T03:01:49Z
2020-05-22T01:04:10Z,42.805,6.029,13.2969,4.59970,2470.03,2020-5-22T03:04:52Z
2020-05-22T01:07:13Z,42.805,6.029,13.2971,4.59971,2469.97,2020-5-22T03:07:55Z
2020-05-22T01:10:16Z,42.805,6.029,13.2970,4.59973,2469.993,2020-5-22T03:10:59Z
2020-05-22T01:13:19Z,42.805,6.029,13.2966,4.59968,2470.03,2020-5-22T03:14:02Z
2020-05-22T01:16:22Z,42.805,6.029,13.2967,4.59969,2469.993,2020-5-22T03:17:05Z
2020-05-22T01:19:26Z,42.805,6.029,13.2968,4.59971,2469.993,2020-5-22T03:20:08Z
2020-05-22T01:22:29Z,42.805,6.029,13.2969,4.59969,2469.993,2020-5-22T03:23:12Z
2020-05-22T01:25:32Z,42.805,6.029,13.2970,4.59970,2470.03,2020-5-22T03:26:15Z
2020-05-22T01:28:36Z,42.805,6.029,13.2969,4.59970,2470.04,2020-5-22T03:29:18Z
2020-05-22T01:31:39Z,42.805,6.029,13.2969,4.59980,2470.017,2020-5-22T03:32:22Z
2020-05-22T01:34:42Z,42.805,6.029,13.2972,4.59971,2469.993,2020-5-22T03:35:25Z
2020-05-22T01:37:45Z,42.805,6.029,13.2967,4.59969,2470.007,2020-5-22T03:38:28Z
2020-05-22T01:40:49Z,42.805,6.029,13.2966,4.59978,2470.03,2020-5-22T03:41:31Z
2020-05-22T01:43:52Z,42.805,6.029,13.2968,4.59969,2469.993,2020-5-22T03:44:34Z
2020-05-22T01:46:55Z,42.805,6.029,13.2967,4.59972,2469.993,2020-5-22T03:47:38Z
2020-05-22T01:49:59Z,42.805,6.029,13.2968,4.59969,2470.03,2020-5-22T03:50:41Z
2020-05-22T01:53:02Z,42.805,6.029,13.2968,4.59971,2469.993,2020-5-22T03:53:44Z
2020-05-22T01:56:05Z,42.805,6.029,13.2970,4.59973,2470.03,2020-5-22T03:56:48Z
2020-05-22T01:59:08Z,42.805,6.029,13.2968,4.59969,2470.017,2020-5-22T03:59:51Z
2020-05-22T02:02:12Z,42.805,6.029,13.2968,4.59977,2470.017,2020-5-22T04:02:54Z
2020-05-22T02:05:15Z,42.805,6.029,13.2965,4.59968,2469.993,2020-5-22T04:05:57Z
2020-05-22T02:08:18Z,42.805,6.029,13.2971,4.59968,2470.007,2020-5-22T04:09:01Z
2020-05-22T02:11:21Z,42.805,6.029,13.2971,4.59969,2469.984,2020-5-22T04:12:04Z
2020-05-22T02:14:25Z,42.805,6.029,13.2967,4.59969,2470.007,2020-5-22T04:15:07Z
2020-05-22T02:17:28Z,42.805,6.029,13.2970,4.59972,2470.053,2020-5-22T04:18:10Z
2020-05-22T02:20:31Z,42.805,6.029,13.2969,4.59968,2470.017,2020-5-22T04:21:14Z
2020-05-22T02:23:34Z,42.805,6.029,13.2971,4.59971,2469.984,2020-5-22T04:24:17Z
2020-05-22T02:26:38Z,42.805,6.029,13.2969,4.59969,2470.017,2020-5-22T04:27:20Z
2020-05-22T02:29:41Z,42.805,6.029,13.2968,4.59969,2470.007,2020-5-22T04:30:24Z
2020-05-22T02:32:44Z,42.805,6.029,13.2968,4.59977,2470.007,2020-5-22T04:33:27Z
2020-05-22T02:35:48Z,42.805,6.029,13.2968,4.59968,2470.003,2020-5-22T04:36:30Z
2020-05-22T02:38:51Z,42.805,6.029,13.2967,4.59969,2470.017,2020-5-22T04:39:33Z
2020-05-22T02:41:54Z,42.805,6.029,13.2971,4.59971,2470.017,2020-5-22T04:42:37Z
2020-05-22T02:44:58Z,42.805,6.029,13.2969,4.59968,2469.97,2020-5-22T04:45:40Z
2020-05-22T02:48:01Z,42.805,6.029,13.2968,4.59969,2470.053,2020-5-22T04:48:44Z
2020-05-22T02:51:04Z,42.805,6.029,13.2968,4.59972,2470.017,2020-5-22T04:51:47Z
2020-05-22T02:54:08Z,42.805,6.029,13.2964,4.59974,2470.04,2020-5-22T04:54:50Z
2020-05-22T02:57:11Z,42.805,6.029,13.2971,4.59970,2470.017,2020-5-22T04:57:53Z
2020-05-22T03:00:14Z,42.805,6.029,13.2967,4.59971,2470.017,2020-5-22T05:00:57Z
2020-05-22T03:03:18Z,42.805,6.029,13.2968,4.59972,2470.04,2020-5-22T05:04:00Z
2020-05-22T03:06:21Z,42.805,6.029,13.2968,4.59976,2470.017,2020-5-22T05:07:03Z
2020-05-22T03:09:24Z,42.805,6.029,13.2969,4.59971,2470.04,2020-5-22T05:10:07Z
2020-05-22T03:12:28Z,42.805,6.029,13.2973,4.59976,2470.03,2020-5-22T05:13:10Z
2020-05-22T03:15:31Z,42.805,6.029,13.2968,4.59971,2470.04,2020-5-22T05:16:14Z
2020-05-22T03:18:34Z,42.805,6.029,13.2968,4.59973,2470.04,2020-5-22T05:19:17Z
2020-05-22T03:21:38Z,42.805,6.029,13.2967,4.59973,2470.063,2020-5-22T05:22:20Z
2020-05-22T03:24:41Z,42.805,6.029,13.2967,4.59971,2470.053,2020-5-22T05:25:23Z
2020-05-22T03:27:44Z,42.805,6.029,13.2969,4.59975,2470.04,2020-5-22T05:28:27Z
2020-05-22T03:30:48Z,42.805,6.029,13.2970,4.59972,2470.017,2020-5-22T05:31:30Z
2020-05-22T03:33:51Z,42.805,6.029,13.2971,4.59970,2470.063,2020-5-22T05:34:33Z
2020-05-22T03:36:54Z,42.805,6.029,13.2969,4.59971,2470.063,2020-5-22T05:37:37Z
2020-05-22T03:39:57Z,42.805,6.029,13.2970,4.59971,2470.063,2020-5-22T05:40:40Z
2020-05-22T03:43:01Z,42.805,6.029,13.2972,4.59971,2470.04,2020-5-22T05:43:43Z
2020-05-22T03:46:04Z,42.805,6.029,13.2972,4.59973,2470.063,2020-5-22T05:46:46Z
2020-05-22T03:49:07Z,42.805,6.029,13.2968,4.59973,2470.053,2020-5-22T05:49:50Z
2020-05-22T03:52:10Z,42.805,6.029,13.2965,4.59973,2470.063,2020-5-22T05:52:53Z
2020-05-22T03:55:14Z,42.805,6.029,13.2968,4.59973,2470.04,2020-5-22T05:55:56Z
2020-05-22T03:58:17Z,42.805,6.029,13.2968,4.59971,2470.077,2020-5-22T05:58:59Z
2020-05-22T04:01:20Z,42.805,6.029,13.2968,4.59971,2470.063,2020-5-22T06:02:03Z
2020-05-22T04:04:23Z,42.805,6.029,13.2968,4.59971,2470.1,2020-5-22T06:05:06Z
2020-05-22T04:07:27Z,42.805,6.029,13.2968,4.59973,2470.077,2020-5-22T06:08:09Z
2020-05-22T04:10:30Z,42.805,6.029,13.2967,4.59972,2470.063,2020-5-22T06:11:12Z
2020-05-22T04:13:33Z,42.805,6.029,13.2968,4.59973,2470.063,2020-5-22T06:14:15Z
2020-05-22T04:16:36Z,42.805,6.029,13.2971,4.59978,2470.063,2020-5-22T06:17:19Z
2020-05-22T04:19:40Z,42.805,6.029,13.2970,4.59971,2470.063,2020-5-22T06:20:22Z
2020-05-22T04:22:43Z,42.805,6.029,13.2971,4.59971,2470.04,2020-5-22T06:23:25Z
2020-05-22T04:25:46Z,42.805,6.029,13.2969,4.59973,2470.1,2020-5-22T06:26:28Z
2020-05-22T04:28:49Z,42.805,6.029,13.2969,4.59973,2470.063,2020-5-22T06:29:32Z
2020-05-22T04:31:52Z,42.805,6.029,13.2968,4.59973,2470.063,2020-5-22T06:32:35Z
2020-05-22T04:34:56Z,42.805,6.029,13.2967,4.59975,2470.087,2020-5-22T06:35:38Z
2020-05-22T04:37:59Z,42.805,6.029,13.2968,4.59973,2470.1,2020-5-22T06:38:41Z
2020-05-22T04:41:02Z,42.805,6.029,13.2967,4.59972,2470.087,2020-5-22T06:41:45Z
2020-05-22T04:44:05Z,42.805,6.029,13.2969,4.59971,2470.11,2020-5-22T06:44:48Z
2020-05-22T04:47:09Z,42.805,6.029,13.2966,4.59976,2470.087,2020-5-22T06:47:51Z
2020-05-22T04:50:12Z,42.805,6.029,13.2971,4.59972,2470.087,2020-5-22T06:50:55Z
2020-05-22T04:53:15Z,42.805,6.029,13.2967,4.59973,2470.11,2020-5-22T06:53:58Z
2020-05-22T04:56:19Z,42.805,6.029,13.2969,4.59973,2470.147,2020-5-22T06:57:01Z
2020-05-22T04:59:22Z,42.805,6.029,13.2968,4.59973,2470.133,2020-5-22T07:00:04Z
2020-05-22T05:02:25Z,42.805,6.029,13.2970,4.59973,2470.11,2020-5-22T07:03:08Z
2020-05-22T05:05:28Z,42.805,6.029,13.2964,4.59971,2470.1,2020-5-22T07:06:11Z
2020-05-22T05:08:32Z,42.805,6.029,13.2967,4.59973,2470.1,2020-5-22T07:09:14Z
2020-05-22T05:11:35Z,42.805,6.029,13.2971,4.59971,2470.124,2020-5-22T07:12:17Z
2020-05-22T05:14:38Z,42.805,6.029,13.2967,4.59971,2470.147,2020-5-22T07:15:20Z
2020-05-22T05:17:41Z,42.805,6.029,13.2971,4.59971,2470.133,2020-5-22T07:18:24Z
2020-05-22T05:20:44Z,42.805,6.029,13.2970,4.59973,2470.133,2020-5-22T07:21:27Z
2020-05-22T05:23:48Z,42.805,6.029,13.2968,4.59971,2470.133,2020-5-22T07:24:30Z
2020-05-22T05:26:51Z,42.805,6.029,13.2967,4.59971,2470.11,2020-5-22T07:27:33Z
2020-05-22T05:29:54Z,42.805,6.029,13.2973,4.59971,2470.133,2020-5-22T07:30:37Z
2020-05-22T05:32:57Z,42.805,6.029,13.2970,4.59971,2470.124,2020-5-22T07:33:40Z
2020-05-22T05:36:01Z,42.805,6.029,13.2966,4.59973,2470.156,2020-5-22T07:36:43Z
2020-05-22T05:39:04Z,42.805,6.029,13.2970,4.59973,2470.156,2020-5-22T07:39:46Z
2020-05-22T05:42:07Z,42.805,6.029,13.2968,4.59972,2470.133,2020-5-22T07:42:49Z
2020-05-22T05:45:10Z,42.805,6.029,13.2969,4.59974,2470.133,2020-5-22T07:45:53Z
2020-05-22T05:48:13Z,42.805,6.029,13.2967,4.59989,2470.133,2020-5-22T07:48:56Z
2020-05-22T05:51:17Z,42.805,6.029,13.2967,4.59976,2470.133,2020-5-22T07:51:59Z
2020-05-22T05:54:20Z,42.805,6.029,13.2968,4.59973,2470.147,2020-5-22T07:55:02Z
2020-05-22T05:57:23Z,42.805,6.029,13.2966,4.59973,2470.18,2020-5-22T07:58:06Z
2020-05-22T06:00:26Z,42.805,6.029,13.2968,4.59972,2470.133,2020-5-22T08:01:09Z
2020-05-22T06:03:30Z,42.805,6.029,13.2967,4.59975,2470.138,2020-5-22T08:04:12Z
2020-05-22T06:06:33Z,42.805,6.029,13.2970,4.59974,2470.156,2020-5-22T08:07:16Z
2020-05-22T06:09:36Z,42.805,6.029,13.2968,4.59973,2470.217,2020-5-22T08:10:19Z
2020-05-22T06:12:40Z,42.805,6.029,13.2971,4.59976,2470.156,2020-5-22T08:13:22Z
2020-05-22T06:15:43Z,42.805,6.029,13.2973,4.59973,2470.156,2020-5-22T08:16:25Z
2020-05-22T06:18:46Z,42.805,6.029,13.2966,4.59973,2470.133,2020-5-22T08:19:29Z
2020-05-22T06:21:49Z,42.805,6.029,13.2971,4.59973,2470.171,2020-5-22T08:22:32Z
2020-05-22T06:24:53Z,42.805,6.029,13.2968,4.59976,2470.156,2020-5-22T08:25:35Z
2020-05-22T06:27:56Z,42.805,6.029,13.2968,4.59973,2470.156,2020-5-22T08:28:38Z
2020-05-22T06:30:59Z,42.805,6.029,13.2968,4.59984,2470.171,2020-5-22T08:31:41Z
2020-05-22T06:34:02Z,42.805,6.029,13.2969,4.59974,2470.171,2020-5-22T08:34:45Z
2020-05-22T06:37:05Z,42.805,6.029,13.2971,4.59975,2470.18,2020-5-22T08:37:48Z
2020-05-22T06:40:09Z,42.805,6.029,13.2970,4.59972,2470.194,2020-5-22T08:40:51Z
2020-05-22T06:43:12Z,42.805,6.029,13.2970,4.59972,2470.156,2020-5-22T08:43:54Z
2020-05-22T06:46:15Z,42.805,6.029,13.2968,4.59975,2470.171,2020-5-22T08:46:58Z
2020-05-22T06:49:19Z,42.805,6.029,13.2967,4.59974,2470.156,2020-5-22T08:50:01Z
2020-05-22T06:52:22Z,42.805,6.029,13.2969,4.59972,2470.171,2020-5-22T08:53:04Z
2020-05-22T06:55:25Z,42.805,6.029,13.2968,4.59972,2470.156,2020-5-22T08:56:08Z
2020-05-22T06:58:28Z,42.805,6.029,13.2967,4.59976,2470.156,2020-5-22T08:59:11Z
2020-05-22T07:01:31Z,42.805,6.029,13.2968,4.59973,2470.147,2020-5-22T09:02:14Z
2020-05-22T07:04:35Z,42.805,6.029,13.2967,4.59975,2470.156,2020-5-22T09:05:17Z
2020-05-22T07:07:38Z,42.805,6.029,13.2969,4.59973,2470.156,2020-5-22T09:08:20Z
2020-05-22T07:10:41Z,42.805,6.029,13.2970,4.59979,2470.18,2020-5-22T09:11:24Z
2020-05-22T07:13:45Z,42.805,6.029,13.2968,4.59981,2470.156,2020-5-22T09:14:27Z
2020-05-22T07:16:48Z,42.805,6.029,13.2967,4.59977,2470.156,2020-5-22T09:17:30Z
2020-05-22T07:19:51Z,42.805,6.029,13.2968,4.59973,2470.194,2020-5-22T09:20:33Z
2020-05-22T07:22:54Z,42.805,6.029,13.2968,4.59975,2470.171,2020-5-22T09:23:37Z
2020-05-22T07:25:57Z,42.805,6.029,13.2968,4.59973,2470.133,2020-5-22T09:26:40Z
2020-05-22T07:29:01Z,42.805,6.029,13.2968,4.59981,2470.171,2020-5-22T09:29:43Z
2020-05-22T07:32:04Z,42.805,6.029,13.2968,4.59978,2470.18,2020-5-22T09:32:46Z
2020-05-22T07:35:07Z,42.805,6.029,13.2968,4.59978,2470.18,2020-5-22T09:35:50Z
2020-05-22T07:38:11Z,42.805,6.029,13.2967,4.59975,2470.156,2020-5-22T09:38:53Z
2020-05-22T07:41:14Z,42.805,6.029,13.2968,4.59984,2470.156,2020-5-22T09:41:56Z
2020-05-22T07:44:17Z,42.805,6.029,13.2968,4.59983,2470.156,2020-5-22T09:45:00Z
2020-05-22T07:47:20Z,42.805,6.029,13.2966,4.59981,2470.156,2020-5-22T09:48:03Z
2020-05-22T07:50:24Z,42.805,6.029,13.2972,4.59976,2470.124,2020-5-22T09:51:06Z
2020-05-22T07:53:27Z,42.805,6.029,13.2967,4.59976,2470.156,2020-5-22T09:54:09Z
2020-05-22T07:56:30Z,42.805,6.029,13.2967,4.59978,2470.156,2020-5-22T09:57:13Z
2020-05-22T07:59:34Z,42.805,6.029,13.2967,4.59983,2470.171,2020-5-22T10:00:16Z
2020-05-22T08:02:37Z,42.805,6.029,13.2967,4.59981,2470.133,2020-5-22T10:03:19Z
2020-05-22T08:05:40Z,42.805,6.029,13.2969,4.59981,2470.147,2020-5-22T10:06:22Z
2020-05-22T08:08:43Z,42.805,6.029,13.2968,4.59978,2470.156,2020-5-22T10:09:26Z
2020-05-22T08:11:46Z,42.805,6.029,13.2968,4.59978,2470.147,2020-5-22T10:12:29Z
2020-05-22T08:14:50Z,42.805,6.029,13.2968,4.59977,2470.147,2020-5-22T10:15:32Z
2020-05-22T08:17:53Z,42.805,6.029,13.2969,4.59978,2470.156,2020-5-22T10:18:35Z
2020-05-22T08:20:56Z,42.805,6.029,13.2968,4.59978,2470.133,2020-5-22T10:21:39Z
2020-05-22T08:24:00Z,42.805,6.029,13.2971,4.59983,2470.156,2020-5-22T10:24:42Z
2020-05-22T08:27:03Z,42.805,6.029,13.2964,4.59987,2470.18,2020-5-22T10:27:45Z
2020-05-22T08:30:06Z,42.805,6.029,13.2975,4.59980,2470.11,2020-5-22T10:30:49Z
2020-05-22T08:33:09Z,42.805,6.029,13.2973,4.59985,2470.11,2020-5-22T10:33:52Z
2020-05-22T08:36:13Z,42.805,6.029,13.2982,4.59986,2470.11,2020-5-22T10:36:55Z
2020-05-22T08:39:16Z,42.805,6.029,13.2969,4.59986,2470.11,2020-5-22T10:39:58Z
2020-05-22T08:42:19Z,42.805,6.029,13.2974,4.59985,2470.133,2020-5-22T10:43:01Z
2020-05-22T08:45:22Z,42.805,6.029,13.2984,4.59978,2470.133,2020-5-22T10:46:05Z
2020-05-22T08:48:25Z,42.805,6.029,13.2979,4.59975,2470.156,2020-5-22T10:49:08Z
2020-05-22T08:51:29Z,42.805,6.029,13.2986,4.59983,2470.124,2020-5-22T10:52:11Z
2020-05-22T08:54:32Z,42.805,6.029,13.2985,4.59983,2470.124,2020-5-22T10:55:14Z
2020-05-22T08:57:35Z,42.805,6.029,13.2990,4.60001,2470.11,2020-5-22T10:58:18Z
2020-05-22T09:00:38Z,42.805,6.029,13.2988,4.60036,2470.119,2020-5-22T11:01:21Z
2020-05-22T09:03:42Z,42.805,6.029,13.2989,4.59981,2470.11,2020-5-22T11:04:24Z
2020-05-22T09:06:45Z,42.805,6.029,13.2990,4.59980,2470.11,2020-5-22T11:07:27Z
2020-05-22T09:09:48Z,42.805,6.029,13.3016,4.60003,2470.11,2020-5-22T11:10:30Z
2020-05-22T09:12:51Z,42.805,6.029,13.2975,4.60003,2470.087,2020-5-22T11:13:34Z
2020-05-22T09:15:54Z,42.805,6.029,13.3010,4.59996,2470.087,2020-5-22T11:16:37Z
2020-05-22T09:18:58Z,42.805,6.029,13.2993,4.60005,2470.124,2020-5-22T11:19:40Z
2020-05-22T09:22:01Z,42.805,6.029,13.2998,4.59994,2470.11,2020-5-22T11:22:43Z
2020-05-22T09:25:04Z,42.805,6.029,13.2993,4.59993,2470.087,2020-5-22T11:25:47Z
2020-05-22T09:28:07Z,42.805,6.029,13.3005,4.59993,2470.073,2020-5-22T11:28:50Z
2020-05-22T09:31:11Z,42.805,6.029,13.3001,4.60014,2470.11,2020-5-22T11:31:53Z
2020-05-22T09:34:14Z,42.805,6.029,13.3015,4.60021,2470.087,2020-5-22T11:34:56Z
2020-05-22T09:37:17Z,42.805,6.029,13.3012,4.60019,2470.1,2020-5-22T11:38:00Z
2020-05-22T09:40:20Z,42.805,6.029,13.3004,4.60006,2470.1,2020-5-22T11:41:03Z
2020-05-22T09:43:24Z,42.805,6.029,13.3014,4.60003,2470.087,2020-5-22T11:44:06Z
2020-05-22T09:46:27Z,42.805,6.029,13.3002,4.60046,2470.077,2020-5-22T11:47:09Z
2020-05-22T09:49:30Z,42.805,6.029,13.3007,4.60061,2470.077,2020-5-22T11:50:13Z
2020-05-22T09:52:34Z,42.805,6.029,13.3006,4.60026,2470.077,2020-5-22T11:53:16Z
2020-05-22T09:55:37Z,42.805,6.029,13.3002,4.60031,2470.087,2020-5-22T11:56:19Z
2020-05-22T09:58:40Z,42.805,6.029,13.3026,4.60041,2470.04,2020-5-22T11:59:22Z
2020-05-22T10:01:43Z,42.805,6.029,13.3013,4.60033,2470.124,2020-5-22T12:02:26Z
2020-05-22T10:04:46Z,42.805,6.029,13.2994,4.60061,2470.063,2020-5-22T12:05:29Z
2020-05-22T10:07:50Z,42.805,6.029,13.3024,4.60022,2470.063,2020-5-22T12:08:32Z
2020-05-22T10:10:53Z,42.805,6.029,13.2993,4.60063,2470.1,2020-5-22T12:11:35Z
2020-05-22T10:13:56Z,42.805,6.029,13.3013,4.60055,2470.04,2020-5-22T12:14:39Z
2020-05-22T10:16:59Z,42.805,6.029,13.2996,4.60026,2470.017,2020-5-22T12:17:42Z
2020-05-22T10:20:03Z,42.805,6.029,13.3024,4.60045,2470.063,2020-5-22T12:20:45Z
2020-05-22T10:23:06Z,42.805,6.029,13.2993,4.60021,2470.063,2020-5-22T12:23:48Z
2020-05-22T10:26:09Z,42.805,6.029,13.2996,4.60039,2470.063,2020-5-22T12:26:52Z
2020-05-22T10:29:12Z,42.805,6.029,13.2992,4.60030,2470.053,2020-5-22T12:29:55Z
2020-05-22T10:32:16Z,42.805,6.029,13.2993,4.60051,2470.063,2020-5-22T12:32:58Z
2020-05-22T10:35:19Z,42.805,6.029,13.3025,4.60046,2470.063,2020-5-22T12:36:01Z
2020-05-22T10:38:22Z,42.805,6.029,13.2996,4.60028,2470.04,2020-5-22T12:39:05Z
2020-05-22T10:41:25Z,42.805,6.029,13.2995,4.60049,2470.053,2020-5-22T12:42:08Z
2020-05-22T10:44:29Z,42.805,6.029,13.2993,4.60021,2470.053,2020-5-22T12:45:11Z
2020-05-22T10:47:32Z,42.805,6.029,13.3008,4.60022,2470.053,2020-5-22T12:48:14Z
2020-05-22T10:50:35Z,42.805,6.029,13.2993,4.60061,2470.04,2020-5-22T12:51:18Z
2020-05-22T10:53:38Z,42.805,6.029,13.3009,4.60021,2470.1,2020-5-22T12:54:21Z
2020-05-22T10:56:42Z,42.805,6.029,13.2984,4.60002,2470.053,2020-5-22T12:57:24Z
2020-05-22T10:59:45Z,42.805,6.029,13.2990,4.60012,2470.017,2020-5-22T13:00:27Z
2020-05-22T11:02:48Z,42.805,6.029,13.3014,4.60021,2470.03,2020-5-22T13:03:31Z
2020-05-22T11:05:51Z,42.805,6.029,13.3004,4.60056,2470.053,2020-5-22T13:06:34Z
2020-05-22T11:08:55Z,42.805,6.029,13.2998,4.60024,2470.03,2020-5-22T13:09:37Z
2020-05-22T11:11:58Z,42.805,6.029,13.2998,4.60048,2470.053,2020-5-22T13:12:41Z
2020-05-22T11:15:01Z,42.805,6.029,13.2996,4.60024,2470.017,2020-5-22T13:15:44Z
2020-05-22T11:18:05Z,42.805,6.029,13.3008,4.60020,2470.017,2020-5-22T13:18:47Z
2020-05-22T11:21:08Z,42.805,6.029,13.3008,4.60019,2470.03,2020-5-22T13:21:50Z
2020-05-22T11:24:11Z,42.805,6.029,13.3007,4.60045,2470.04,2020-5-22T13:24:54Z
2020-05-22T11:27:14Z,42.805,6.029,13.2990,4.60052,2470.03,2020-5-22T13:27:57Z
2020-05-22T11:30:18Z,42.805,6.029,13.3002,4.60064,2470.017,2020-5-22T13:31:00Z
2020-05-22T11:33:21Z,42.805,6.029,13.3015,4.60045,2470.053,2020-5-22T13:34:04Z
2020-05-22T11:36:24Z,42.805,6.029,13.3009,4.60016,2470.03,2020-5-22T13:37:07Z
2020-05-22T11:39:28Z,42.805,6.029,13.3026,4.60019,2470.007,2020-5-22T13:40:10Z
2020-05-22T11:42:31Z,42.805,6.029,13.2993,4.60007,2470.053,2020-5-22T13:43:14Z
2020-05-22T11:45:34Z,42.805,6.029,13.2990,4.60034,2470.007,2020-5-22T13:46:17Z
2020-05-22T11:48:37Z,42.805,6.029,13.3014,4.60024,2470.017,2020-5-22T13:49:20Z
2020-05-22T11:51:41Z,42.805,6.029,13.3012,4.60021,2469.993,2020-5-22T13:52:23Z
2020-05-22T11:54:44Z,42.805,6.029,13.2997,4.60025,2470.017,2020-5-22T13:55:27Z
2020-05-22T11:57:47Z,42.805,6.029,13.3004,4.60067,2469.993,2020-5-22T13:58:30Z
2020-05-22T12:00:51Z,42.805,6.029,13.3000,4.59991,2470.007,2020-5-22T14:01:33Z
2020-05-22T12:03:54Z,42.805,6.029,13.2992,4.59991,2470.007,2020-5-22T14:04:36Z
2020-05-22T12:06:57Z,42.805,6.029,13.3004,4.59997,2469.993,2020-5-22T14:07:40Z
2020-05-22T12:10:00Z,42.805,6.029,13.2998,4.59997,2470.007,2020-5-22T14:10:43Z
2020-05-22T12:13:03Z,42.805,6.029,13.3011,4.60006,2469.984,2020-5-22T14:13:46Z
2020-05-22T12:16:07Z,42.805,6.029,13.3001,4.60031,2470.03,2020-5-22T14:16:49Z
2020-05-22T12:19:10Z,42.805,6.029,13.3022,4.60019,2469.984,2020-5-22T14:19:52Z
2020-05-22T12:22:13Z,42.805,6.029,13.3047,4.60039,2470.007,2020-5-22T14:22:56Z
2020-05-22T12:25:16Z,42.805,6.029,13.2992,4.59996,2469.993,2020-5-22T14:25:59Z
2020-05-22T12:28:20Z,42.805,6.029,13.2996,4.60032,2470.007,2020-5-22T14:29:02Z
2020-05-22T12:31:23Z,42.805,6.029,13.3015,4.60029,2470.007,2020-5-22T14:32:06Z
2020-05-22T12:34:27Z,42.805,6.029,13.3035,4.60081,2469.984,2020-5-22T14:35:09Z
2020-05-22T12:37:30Z,42.805,6.029,13.3046,4.60069,2470.03,2020-5-22T14:38:12Z
2020-05-22T12:40:33Z,42.805,6.029,13.3082,4.60067,2469.993,2020-5-22T14:41:15Z
2020-05-22T12:43:36Z,42.805,6.029,13.3089,4.60026,2469.984,2020-5-22T14:44:19Z
2020-05-22T12:46:39Z,42.805,6.029,13.3098,4.60014,2469.993,2020-5-22T14:47:22Z
2020-05-22T12:49:43Z,42.805,6.029,13.3076,4.60102,2469.97,2020-5-22T14:50:25Z
2020-05-22T12:52:46Z,42.805,6.029,13.3075,4.60031,2470.007,2020-5-22T14:53:28Z
2020-05-22T12:55:49Z,42.805,6.029,13.3014,4.60034,2469.984,2020-5-22T14:56:32Z
2020-05-22T12:58:53Z,42.805,6.029,13.3037,4.60014,2469.97,2020-5-22T14:59:35Z
2020-05-22T13:01:56Z,42.805,6.029,13.3033,4.59991,2469.984,2020-5-22T15:02:38Z
2020-05-22T13:04:59Z,42.805,6.029,13.3005,4.59997,2470.017,2020-5-22T15:05:42Z
2020-05-22T13:08:02Z,42.805,6.029,13.2996,4.60009,2470.007,2020-5-22T15:08:45Z
2020-05-22T13:11:06Z,42.805,6.029,13.3008,4.60006,2469.947,2020-5-22T15:11:48Z
2020-05-22T13:14:09Z,42.805,6.029,13.3004,4.60003,2470.017,2020-5-22T15:14:52Z
2020-05-22T13:17:12Z,42.805,6.029,13.3036,4.60004,2470.017,2020-5-22T15:17:55Z
2020-05-22T13:20:16Z,42.805,6.029,13.3018,4.59992,2470.007,2020-5-22T15:20:58Z
2020-05-22T13:23:19Z,42.805,6.029,13.3034,4.59992,2469.97,2020-5-22T15:24:01Z
2020-05-22T13:26:22Z,42.805,6.029,13.3052,4.59996,2469.984,2020-5-22T15:27:05Z
2020-05-22T13:29:25Z,42.805,6.029,13.3029,4.59996,2470.007,2020-5-22T15:30:08Z
2020-05-22T13:32:28Z,42.805,6.029,13.3036,4.59998,2469.993,2020-5-22T15:33:11Z
2020-05-22T13:35:32Z,42.805,6.029,13.3025,4.59999,2470.007,2020-5-22T15:36:14Z
2020-05-22T13:38:35Z,42.805,6.029,13.3042,4.60017,2470.007,2020-5-22T15:39:18Z
2020-05-22T13:41:38Z,42.805,6.029,13.3028,4.60024,2470.007,2020-5-22T15:42:21Z
2020-05-22T13:44:42Z,42.805,6.029,13.3031,4.60002,2470.007,2020-5-22T15:45:24Z
2020-05-22T13:47:45Z,42.805,6.029,13.3040,4.60036,2469.97,2020-5-22T15:48:27Z
2020-05-22T13:50:48Z,42.805,6.029,13.3046,4.60012,2470.007,2020-5-22T15:51:30Z
2020-05-22T13:53:51Z,42.805,6.029,13.3046,4.60023,2469.993,2020-5-22T15:54:34Z
2020-05-22T13:56:55Z,42.805,6.029,13.3041,4.60041,2469.984,2020-5-22T15:57:37Z
2020-05-22T13:59:58Z,42.805,6.029,13.3056,4.60014,2470.03,2020-5-22T16:00:40Z
2020-05-22T14:03:01Z,42.805,6.029,13.3039,4.60014,2470.007,2020-5-22T16:03:44Z
2020-05-22T14:06:04Z,42.805,6.029,13.3039,4.60037,2469.993,2020-5-22T16:06:47Z
2020-05-22T14:09:08Z,42.805,6.029,13.3041,4.60038,2469.993,2020-5-22T16:09:50Z
2020-05-22T14:12:11Z,42.805,6.029,13.3041,4.60031,2470.007,2020-5-22T16:12:53Z
2020-05-22T14:15:12Z,42.805,6.029,13.3046,4.60041,2470.017,2020-5-22T16:15:55Z
2020-05-22T14:18:14Z,42.805,6.029,13.3048,4.60039,2470.007,2020-5-22T16:18:56Z
2020-05-22T15:01:22Z,42.805,6.029,13.2968,4.60015,2470.017,2020-5-22T17:02:05Z
2020-05-22T15:28:08Z,42.805,6.029,13.2970,4.60015,2470.03,2020-5-22T17:28:50Z
2020-05-22T15:31:11Z,42.805,6.029,13.2970,4.60003,2470.063,2020-5-22T17:31:53Z
2020-05-22T15:34:14Z,42.805,6.029,13.2967,4.60001,2470.04,2020-5-22T17:34:57Z
2020-05-22T15:37:17Z,42.805,6.029,13.2968,4.60004,2470.04,2020-5-22T17:38:00Z
2020-05-22T15:40:21Z,42.805,6.029,13.2967,4.60001,2470.03,2020-5-22T17:41:03Z
2020-05-22T15:43:24Z,42.805,6.029,13.2968,4.60002,2470.04,2020-5-22T17:44:06Z
2020-05-22T15:46:27Z,42.805,6.029,13.2967,4.60001,2470.04,2020-5-22T17:47:09Z
2020-05-22T15:49:30Z,42.805,6.029,13.2969,4.60005,2470.03,2020-5-22T17:50:13Z
2020-05-22T15:52:33Z,42.805,6.029,13.2965,4.59999,2470.063,2020-5-22T17:53:16Z
2020-05-22T15:55:37Z,42.805,6.029,13.2969,4.59999,2470.04,2020-5-22T17:56:19Z
2020-05-22T15:58:40Z,42.805,6.029,13.2969,4.59997,2470.077,2020-5-22T17:59:22Z
2020-05-22T16:01:43Z,42.805,6.029,13.2968,4.59989,2470.063,2020-5-22T18:02:25Z
2020-05-22T16:04:46Z,42.805,6.029,13.2970,4.59992,2470.063,2020-5-22T18:05:29Z
2020-05-22T16:07:49Z,42.805,6.029,13.2966,4.59987,2470.063,2020-5-22T18:08:32Z
2020-05-22T16:10:53Z,42.805,6.029,13.2968,4.59991,2470.053,2020-5-22T18:11:35Z
2020-05-22T16:13:56Z,42.805,6.029,13.2968,4.59987,2470.077,2020-5-22T18:14:38Z
2020-05-22T16:16:59Z,42.805,6.029,13.2971,4.59993,2470.063,2020-5-22T18:17:42Z